Time,TemperatureF,DewpointF,PressureIn,WindDirection,WindDirectionDegrees,WindSpeedMPH,WindSpeedGustMPH,Humidity,HourlyPrecipIn,Conditions,Clouds,dailyrainin,SolarRadiationWatts/m^2,SoftwareType,DateUTC
2013-08-29 00:00:00,69.6,67.8,29.13,WSW,247,0.0,-999.0,94,0.00,,,0.00,0,WeatherHawk,2013-08-29 05:00:00,
2013-08-29 00:10:00,69.9,68.7,29.13,SSE,162,0.0,-999.0,96,0.00,,,0.00,0,WeatherHawk,2013-08-29 05:10:00,
2013-08-29 00:15:00,70.0,68.8,29.13,SSE,162,0.0,-999.0,96,0.00,,,0.00,0,WeatherHawk,2013-08-29 05:15:00,
2013-08-29 00:20:00,70.0,68.8,29.13,SSE,162,0.0,-999.0,96,0.00,,,0.00,0,WeatherHawk,2013-08-29 05:20:00,
2013-08-29 00:25:00,69.8,68.3,29.13,SSE,162,0.0,-999.0,95,0.00,,,0.00,0,WeatherHawk,2013-08-29 05:25:00,
2013-08-29 00:30:00,69.1,67.6,29.14,NW,312,0.0,-999.0,95,0.00,,,0.00,0,WeatherHawk,2013-08-29 05:30:00,
2013-08-29 00:35:00,69.4,67.9,29.14,NW,312,0.0,-999.0,95,0.00,,,0.00,0,WeatherHawk,2013-08-29 05:35:00,
2013-08-29 00:40:00,69.1,67.3,29.14,NW,313,3.0,-999.0,94,0.00,,,0.00,0,WeatherHawk,2013-08-29 05:40:00,
2013-08-29 00:45:00,69.3,67.2,29.14,North,351,0.0,-999.0,93,0.00,,,0.00,0,WeatherHawk,2013-08-29 05:45:00,
2013-08-29 00:50:00,69.0,67.2,29.14,NW,315,0.0,-999.0,94,0.00,,,0.00,0,WeatherHawk,2013-08-29 05:50:00,
2013-08-29 00:55:00,68.5,67.0,29.14,NW,315,0.0,-999.0,95,0.00,,,0.00,0,WeatherHawk,2013-08-29 05:55:00,
2013-08-29 01:00:00,68.5,67.3,29.14,NW,311,1.0,-999.0,96,0.00,,,0.00,0,WeatherHawk,2013-08-29 06:00:00,
2013-08-29 01:05:00,68.3,66.8,29.14,WNW,285,0.0,-999.0,95,0.00,,,0.00,0,WeatherHawk,2013-08-29 06:05:00,
2013-08-29 01:10:00,68.1,66.9,29.14,WNW,297,2.0,-999.0,96,0.00,,,0.00,0,WeatherHawk,2013-08-29 06:10:00,
2013-08-29 01:15:00,68.2,66.8,29.14,NW,305,0.0,-999.0,95,0.00,,,0.00,0,WeatherHawk,2013-08-29 06:15:00,
2013-08-29 01:20:00,68.0,66.8,29.14,West,274,0.0,-999.0,96,0.00,,,0.00,0,WeatherHawk,2013-08-29 06:20:00,
2013-08-29 01:25:00,67.4,66.2,29.14,West,276,0.0,-999.0,96,0.00,,,0.00,1,WeatherHawk,2013-08-29 06:25:00,
2013-08-29 01:30:00,67.1,66.2,29.15,West,274,0.0,-999.0,97,0.00,,,0.00,0,WeatherHawk,2013-08-29 06:30:00,
2013-08-29 01:35:00,67.6,67.0,29.14,West,273,0.0,-999.0,98,0.00,,,0.00,0,WeatherHawk,2013-08-29 06:35:00,
2013-08-29 01:40:00,67.6,67.3,29.15,West,268,0.0,-999.0,99,0.00,,,0.00,0,WeatherHawk,2013-08-29 06:40:00,
2013-08-29 01:45:00,67.7,67.7,29.14,West,268,0.0,-999.0,100,0.00,,,0.00,0,WeatherHawk,2013-08-29 06:45:00,
2013-08-29 01:50:00,67.7,67.7,29.15,West,268,0.0,-999.0,100,0.00,,,0.00,0,WeatherHawk,2013-08-29 06:50:00,
2013-08-29 01:55:00,67.4,67.4,29.14,West,268,0.0,-999.0,100,0.00,,,0.00,0,WeatherHawk,2013-08-29 06:55:00,
2013-08-29 02:00:00,66.9,66.9,29.14,West,268,0.0,-999.0,100,0.00,,,0.00,0,WeatherHawk,2013-08-29 07:00:00,
2013-08-29 02:05:00,67.2,67.2,29.14,West,268,0.0,-999.0,100,0.00,,,0.00,0,WeatherHawk,2013-08-29 07:05:00,
2013-08-29 02:10:00,67.5,67.5,29.14,West,268,0.0,-999.0,100,0.00,,,0.00,1,WeatherHawk,2013-08-29 07:10:00,
2013-08-29 02:15:00,67.5,67.5,29.13,West,268,0.0,-999.0,100,0.00,,,0.00,0,WeatherHawk,2013-08-29 07:15:00,
2013-08-29 02:20:00,66.8,66.8,29.13,West,268,0.0,-999.0,100,0.00,,,0.00,0,WeatherHawk,2013-08-29 07:20:00,
2013-08-29 02:25:00,66.4,66.4,29.14,West,268,0.0,-999.0,100,0.00,,,0.00,0,WeatherHawk,2013-08-29 07:25:00,
2013-08-29 02:30:00,67.3,67.3,29.15,West,268,0.0,-999.0,100,0.00,,,0.00,0,WeatherHawk,2013-08-29 07:30:00,
2013-08-29 02:35:00,66.6,66.6,29.14,West,268,0.0,-999.0,100,0.00,,,0.00,0,WeatherHawk,2013-08-29 07:35:00,
2013-08-29 02:40:00,66.5,66.5,29.14,West,268,0.0,-999.0,100,0.00,,,0.00,0,WeatherHawk,2013-08-29 07:40:00,
2013-08-29 02:45:00,66.3,66.3,29.14,West,268,0.0,-999.0,100,0.00,,,0.00,1,WeatherHawk,2013-08-29 07:45:00,
2013-08-29 02:50:00,66.6,66.6,29.14,West,268,0.0,-999.0,100,0.00,,,0.00,0,WeatherHawk,2013-08-29 07:50:00,
2013-08-29 02:55:00,67.0,67.0,29.13,West,268,0.0,-999.0,100,0.00,,,0.00,0,WeatherHawk,2013-08-29 07:55:00,
2013-08-29 03:00:00,66.9,66.9,29.14,West,268,0.0,-999.0,100,0.00,,,0.00,0,WeatherHawk,2013-08-29 08:00:00,
2013-08-29 03:05:00,65.3,65.3,29.14,NW,314,0.0,-999.0,100,0.00,,,0.00,0,WeatherHawk,2013-08-29 08:05:00,
2013-08-29 03:10:00,65.2,65.2,29.14,NW,314,0.0,-999.0,100,0.00,,,0.00,0,WeatherHawk,2013-08-29 08:10:00,
2013-08-29 03:15:00,65.5,65.5,29.14,NW,314,0.0,-999.0,100,0.00,,,0.00,0,WeatherHawk,2013-08-29 08:15:00,
2013-08-29 03:20:00,64.9,64.9,29.15,NW,314,0.0,-999.0,100,0.00,,,0.00,0,WeatherHawk,2013-08-29 08:20:00,
2013-08-29 03:25:00,65.0,65.0,29.14,NW,314,0.0,-999.0,100,0.00,,,0.00,1,WeatherHawk,2013-08-29 08:25:00,
2013-08-29 03:30:00,64.6,64.6,29.14,NW,314,0.0,-999.0,100,0.00,,,0.00,0,WeatherHawk,2013-08-29 08:30:00,
2013-08-29 03:35:00,64.1,64.1,29.14,NW,314,0.0,-999.0,100,0.00,,,0.00,0,WeatherHawk,2013-08-29 08:35:00,
2013-08-29 03:40:00,64.5,64.5,29.15,NW,314,0.0,-999.0,100,0.00,,,0.00,0,WeatherHawk,2013-08-29 08:40:00,
2013-08-29 03:45:00,65.4,65.4,29.14,NW,314,0.0,-999.0,100,0.00,,,0.00,0,WeatherHawk,2013-08-29 08:45:00,
2013-08-29 03:50:00,65.2,65.2,29.14,NW,314,0.0,-999.0,100,0.00,,,0.00,0,WeatherHawk,2013-08-29 08:50:00,
2013-08-29 03:55:00,64.8,64.8,29.14,North,350,0.0,-999.0,100,0.00,,,0.00,0,WeatherHawk,2013-08-29 08:55:00,
2013-08-29 04:00:00,63.7,63.7,29.13,North,350,0.0,-999.0,100,0.00,,,0.00,0,WeatherHawk,2013-08-29 09:00:00,
2013-08-29 04:05:00,64.0,64.0,29.14,North,350,0.0,-999.0,100,0.00,,,0.00,0,WeatherHawk,2013-08-29 09:05:00,
2013-08-29 04:10:00,63.4,63.4,29.14,WNW,283,0.0,-999.0,100,0.00,,,0.00,0,WeatherHawk,2013-08-29 09:10:00,
2013-08-29 04:15:00,63.0,63.0,29.14,WNW,283,0.0,-999.0,100,0.00,,,0.00,0,WeatherHawk,2013-08-29 09:15:00,
2013-08-29 04:20:00,62.9,62.9,29.14,West,273,0.0,-999.0,100,0.00,,,0.00,0,WeatherHawk,2013-08-29 09:20:00,
2013-08-29 04:25:00,62.8,62.8,29.15,West,273,2.0,-999.0,100,0.00,,,0.00,0,WeatherHawk,2013-08-29 09:25:00,
2013-08-29 04:30:00,63.3,63.3,29.15,West,273,1.0,-999.0,100,0.00,,,0.00,0,WeatherHawk,2013-08-29 09:30:00,
2013-08-29 04:35:00,63.8,63.8,29.14,West,260,0.0,-999.0,100,0.00,,,0.00,0,WeatherHawk,2013-08-29 09:35:00,
2013-08-29 04:40:00,63.0,63.0,29.14,West,260,0.0,-999.0,100,0.00,,,0.00,0,WeatherHawk,2013-08-29 09:40:00,
2013-08-29 04:45:00,63.1,63.1,29.14,West,260,0.0,-999.0,100,0.00,,,0.00,0,WeatherHawk,2013-08-29 09:45:00,
2013-08-29 04:50:00,63.4,63.4,29.14,West,260,0.0,-999.0,100,0.00,,,0.00,0,WeatherHawk,2013-08-29 09:50:00,
2013-08-29 04:55:00,63.0,63.0,29.14,West,260,0.0,-999.0,100,0.00,,,0.00,0,WeatherHawk,2013-08-29 09:55:00,
2013-08-29 05:00:00,63.0,63.0,29.14,West,260,0.0,-999.0,100,0.00,,,0.00,0,WeatherHawk,2013-08-29 10:00:00,
2013-08-29 05:05:00,62.8,62.8,29.15,NNW,340,0.0,-999.0,100,0.00,,,0.00,0,WeatherHawk,2013-08-29 10:05:00,
2013-08-29 05:10:00,62.7,62.7,29.14,North,351,0.0,-999.0,100,0.00,,,0.00,0,WeatherHawk,2013-08-29 10:10:00,
2013-08-29 05:15:00,62.6,62.6,29.15,North,351,0.0,-999.0,100,0.00,,,0.00,0,WeatherHawk,2013-08-29 10:15:00,
2013-08-29 05:20:00,62.2,62.2,29.16,NNW,338,0.0,-999.0,100,0.00,,,0.00,0,WeatherHawk,2013-08-29 10:20:00,
2013-08-29 05:25:00,62.1,62.1,29.15,NW,324,0.0,-999.0,100,0.00,,,0.00,0,WeatherHawk,2013-08-29 10:25:00,
2013-08-29 05:30:00,61.9,61.9,29.15,NW,324,0.0,-999.0,100,0.00,,,0.00,0,WeatherHawk,2013-08-29 10:30:00,
2013-08-29 05:35:00,62.2,62.2,29.15,NW,324,0.0,-999.0,100,0.00,,,0.00,0,WeatherHawk,2013-08-29 10:35:00,
2013-08-29 05:40:00,62.2,62.2,29.15,NW,324,0.0,-999.0,100,0.00,,,0.00,0,WeatherHawk,2013-08-29 10:40:00,
2013-08-29 05:45:00,62.4,62.4,29.15,NW,324,0.0,-999.0,100,0.00,,,0.00,0,WeatherHawk,2013-08-29 10:45:00,
2013-08-29 05:50:00,62.2,62.2,29.15,NW,324,0.0,-999.0,100,0.00,,,0.00,0,WeatherHawk,2013-08-29 10:50:00,
2013-08-29 05:55:00,62.5,62.5,29.15,NW,324,0.0,-999.0,100,0.00,,,0.00,0,WeatherHawk,2013-08-29 10:55:00,
2013-08-29 06:00:00,62.4,62.4,29.15,NW,324,0.0,-999.0,100,0.00,,,0.00,0,WeatherHawk,2013-08-29 11:00:00,
2013-08-29 06:05:00,62.7,62.7,29.15,NW,324,0.0,-999.0,100,0.00,,,0.00,0,WeatherHawk,2013-08-29 11:05:00,
2013-08-29 06:10:00,62.5,62.5,29.15,NW,324,0.0,-999.0,100,0.00,,,0.00,1,WeatherHawk,2013-08-29 11:10:00,
2013-08-29 06:15:00,61.7,61.7,29.16,NW,324,0.0,-999.0,100,0.00,,,0.00,2,WeatherHawk,2013-08-29 11:15:00,
2013-08-29 06:20:00,62.0,62.0,29.16,NW,324,0.0,-999.0,100,0.00,,,0.00,3,WeatherHawk,2013-08-29 11:20:00,
2013-08-29 06:25:00,62.3,62.3,29.17,NW,324,0.0,-999.0,100,0.00,,,0.00,5,WeatherHawk,2013-08-29 11:25:00,
2013-08-29 06:30:00,62.1,62.1,29.17,WSW,253,0.0,-999.0,100,0.00,,,0.00,8,WeatherHawk,2013-08-29 11:30:00,
2013-08-29 06:35:00,62.0,62.0,29.17,WSW,254,0.0,-999.0,100,0.00,,,0.00,10,WeatherHawk,2013-08-29 11:35:00,
2013-08-29 06:40:00,62.2,62.2,29.16,WSW,255,0.0,-999.0,100,0.00,,,0.00,19,WeatherHawk,2013-08-29 11:40:00,
2013-08-29 06:45:00,62.6,62.6,29.16,WSW,255,0.0,-999.0,100,0.00,,,0.00,24,WeatherHawk,2013-08-29 11:45:00,
2013-08-29 06:55:00,62.2,62.2,29.17,WSW,255,0.0,-999.0,100,0.00,,,0.00,36,WeatherHawk,2013-08-29 11:55:00,
2013-08-29 07:00:00,62.7,62.7,29.16,WSW,255,0.0,-999.0,100,0.00,,,0.00,43,WeatherHawk,2013-08-29 12:00:00,
2013-08-29 07:05:00,63.0,63.0,29.17,WSW,255,0.0,-999.0,100,0.00,,,0.00,52,WeatherHawk,2013-08-29 12:05:00,
2013-08-29 07:10:00,62.8,62.8,29.17,WNW,301,0.0,-999.0,100,0.00,,,0.00,67,WeatherHawk,2013-08-29 12:10:00,
2013-08-29 07:15:00,62.5,62.5,29.17,NE,39,3.0,-999.0,100,0.00,,,0.00,78,WeatherHawk,2013-08-29 12:15:00,
2013-08-29 07:20:00,62.5,62.5,29.17,NE,40,0.0,-999.0,100,0.00,,,0.00,81,WeatherHawk,2013-08-29 12:20:00,
2013-08-29 07:25:00,62.9,62.9,29.18,NE,39,0.0,-999.0,100,0.00,,,0.00,89,WeatherHawk,2013-08-29 12:25:00,
2013-08-29 07:30:00,63.2,63.2,29.17,NE,46,0.0,-999.0,100,0.00,,,0.00,96,WeatherHawk,2013-08-29 12:30:00,
2013-08-29 07:35:00,63.6,63.6,29.17,East,83,0.0,-999.0,100,0.00,,,0.00,103,WeatherHawk,2013-08-29 12:35:00,
2013-08-29 07:40:00,64.0,64.0,29.17,ENE,64,0.0,-999.0,100,0.00,,,0.00,128,WeatherHawk,2013-08-29 12:40:00,
2013-08-29 07:45:00,65.2,65.2,29.17,ENE,64,0.0,-999.0,100,0.00,,,0.00,138,WeatherHawk,2013-08-29 12:45:00,
2013-08-29 07:50:00,70.0,70.0,29.17,ENE,64,0.0,-999.0,100,0.00,,,0.00,204,WeatherHawk,2013-08-29 12:50:00,
2013-08-29 07:55:00,65.5,63.1,29.17,NNE,15,0.0,-999.0,92,0.00,,,0.00,180,WeatherHawk,2013-08-29 12:55:00,
2013-08-29 08:00:00,66.5,64.5,29.18,NNE,17,0.0,-999.0,93,0.00,,,0.00,142,WeatherHawk,2013-08-29 13:00:00,
2013-08-29 08:05:00,65.9,62.9,29.18,NNE,17,0.0,-999.0,90,0.00,,,0.00,187,WeatherHawk,2013-08-29 13:05:00,
2013-08-29 08:10:00,68.2,63.9,29.17,NNE,17,0.0,-999.0,86,0.00,,,0.00,253,WeatherHawk,2013-08-29 13:10:00,
2013-08-29 08:15:00,69.8,64.4,29.17,NNE,17,0.0,-999.0,83,0.00,,,0.00,262,WeatherHawk,2013-08-29 13:15:00,
2013-08-29 08:20:00,67.9,61.9,29.17,NNE,29,0.0,-999.0,81,0.00,,,0.00,279,WeatherHawk,2013-08-29 13:20:00,
2013-08-29 08:25:00,70.7,62.7,29.17,NNE,29,0.0,-999.0,76,0.00,,,0.00,291,WeatherHawk,2013-08-29 13:25:00,
2013-08-29 08:30:00,72.5,63.8,29.17,NNE,29,0.0,-999.0,74,0.00,,,0.00,307,WeatherHawk,2013-08-29 13:30:00,
2013-08-29 08:35:00,72.0,61.2,29.17,NNE,29,0.0,-999.0,69,0.00,,,0.00,327,WeatherHawk,2013-08-29 13:35:00,
2013-08-29 08:40:00,73.7,63.3,29.17,NNE,28,0.0,-999.0,70,0.00,,,0.00,383,WeatherHawk,2013-08-29 13:40:00,
2013-08-29 08:45:00,72.2,60.2,29.17,NNE,27,0.0,-999.0,66,0.00,,,0.00,433,WeatherHawk,2013-08-29 13:45:00,
2013-08-29 08:50:00,73.1,61.4,29.18,NNE,22,1.0,-999.0,67,0.00,,,0.00,453,WeatherHawk,2013-08-29 13:50:00,
2013-08-29 08:55:00,75.6,63.9,29.17,ENE,62,0.0,-999.0,67,0.00,,,0.00,294,WeatherHawk,2013-08-29 13:55:00,
2013-08-29 09:00:00,74.4,60.0,29.18,ESE,104,0.0,-999.0,61,0.00,,,0.00,440,WeatherHawk,2013-08-29 14:00:00,
2013-08-29 09:05:00,74.7,60.3,29.17,East,101,1.0,-999.0,61,0.00,,,0.00,380,WeatherHawk,2013-08-29 14:05:00,
2013-08-29 09:10:00,73.4,61.8,29.17,ESE,109,4.0,-999.0,67,0.00,,,0.00,313,WeatherHawk,2013-08-29 14:10:00,
2013-08-29 09:15:00,76.5,65.2,29.18,East,81,2.0,-999.0,68,0.00,,,0.00,373,WeatherHawk,2013-08-29 14:15:00,
2013-08-29 09:20:00,74.6,61.6,29.17,ENE,76,2.0,-999.0,64,0.00,,,0.00,424,WeatherHawk,2013-08-29 14:20:00,
2013-08-29 09:25:00,75.0,63.2,29.18,East,82,5.0,-999.0,67,0.00,,,0.00,468,WeatherHawk,2013-08-29 14:25:00,
2013-08-29 09:30:00,74.4,62.8,29.18,ESE,109,6.0,-999.0,67,0.00,,,0.00,351,WeatherHawk,2013-08-29 14:30:00,
2013-08-29 09:35:00,75.1,63.4,29.18,ENE,78,5.0,-999.0,67,0.00,,,0.00,296,WeatherHawk,2013-08-29 14:35:00,
2013-08-29 09:40:00,75.7,64.8,29.18,SE,133,4.0,-999.0,69,0.00,,,0.00,292,WeatherHawk,2013-08-29 14:40:00,
2013-08-29 09:45:00,75.0,63.7,29.18,ENE,67,4.0,-999.0,68,0.00,,,0.00,353,WeatherHawk,2013-08-29 14:45:00,
2013-08-29 09:50:00,75.7,63.5,29.18,ESE,105,7.0,-999.0,66,0.00,,,0.00,397,WeatherHawk,2013-08-29 14:50:00,
2013-08-29 09:55:00,75.1,63.4,29.17,SSE,164,4.0,-999.0,67,0.00,,,0.00,363,WeatherHawk,2013-08-29 14:55:00,
2013-08-29 10:00:00,75.7,63.5,29.18,East,80,7.0,-999.0,66,0.00,,,0.00,373,WeatherHawk,2013-08-29 15:00:00,
2013-08-29 10:05:00,76.5,64.3,29.17,SE,129,5.0,-999.0,66,0.00,,,0.00,508,WeatherHawk,2013-08-29 15:05:00,
2013-08-29 10:10:00,77.3,63.7,29.17,ENE,63,8.0,-999.0,63,0.00,,,0.00,379,WeatherHawk,2013-08-29 15:10:00,
2013-08-29 10:15:00,78.6,65.0,29.17,ENE,69,7.0,-999.0,63,0.00,,,0.00,740,WeatherHawk,2013-08-29 15:15:00,
2013-08-29 10:20:00,77.1,61.7,29.16,SE,129,9.0,-999.0,59,0.00,,,0.00,723,WeatherHawk,2013-08-29 15:20:00,
2013-08-29 10:25:00,79.0,64.4,29.17,ENE,67,7.0,-999.0,61,0.00,,,0.00,447,WeatherHawk,2013-08-29 15:25:00,
2013-08-29 10:30:00,78.2,62.7,29.17,East,80,7.0,-999.0,59,0.00,,,0.00,523,WeatherHawk,2013-08-29 15:30:00,
2013-08-29 10:35:00,78.3,62.8,29.16,East,89,6.0,-999.0,59,0.00,,,0.00,561,WeatherHawk,2013-08-29 15:35:00,
2013-08-29 10:40:00,78.8,62.3,29.16,ENE,62,5.0,-999.0,57,0.00,,,0.00,505,WeatherHawk,2013-08-29 15:40:00,
2013-08-29 10:45:00,77.7,59.2,29.17,East,92,4.0,-999.0,53,0.00,,,0.00,519,WeatherHawk,2013-08-29 15:45:00,
2013-08-29 10:50:00,78.4,60.4,29.17,ENE,65,6.0,-999.0,54,0.00,,,0.00,488,WeatherHawk,2013-08-29 15:50:00,
2013-08-29 10:55:00,79.4,60.3,29.17,East,83,5.0,-999.0,52,0.00,,,0.00,574,WeatherHawk,2013-08-29 15:55:00,
2013-08-29 11:00:00,79.7,60.5,29.17,SE,140,7.0,-999.0,52,0.00,,,0.00,727,WeatherHawk,2013-08-29 16:00:00,
2013-08-29 11:05:00,80.5,61.2,29.16,ESE,118,6.0,-999.0,52,0.00,,,0.00,595,WeatherHawk,2013-08-29 16:05:00,
2013-08-29 11:10:00,81.8,61.9,29.17,East,99,9.0,-999.0,51,0.00,,,0.00,651,WeatherHawk,2013-08-29 16:10:00,
2013-08-29 11:15:00,80.1,58.6,29.17,ESE,115,6.0,-999.0,48,0.00,,,0.00,692,WeatherHawk,2013-08-29 16:15:00,
2013-08-29 11:20:00,79.4,57.4,29.18,ESE,102,7.0,-999.0,47,0.00,,,0.00,777,WeatherHawk,2013-08-29 16:20:00,
2013-08-29 11:25:00,80.9,58.2,29.18,ENE,71,9.0,-999.0,46,0.00,,,0.00,753,WeatherHawk,2013-08-29 16:25:00,
2013-08-29 11:30:00,79.6,56.4,29.18,ESE,110,9.0,-999.0,45,0.00,,,0.00,797,WeatherHawk,2013-08-29 16:30:00,
2013-08-29 11:35:00,80.4,56.5,29.17,ENE,72,6.0,-999.0,44,0.00,,,0.00,810,WeatherHawk,2013-08-29 16:35:00,
2013-08-29 11:40:00,81.8,57.7,29.16,WSW,242,8.0,-999.0,44,0.00,,,0.00,827,WeatherHawk,2013-08-29 16:40:00,
2013-08-29 11:45:00,83.5,58.0,29.17,East,94,7.0,-999.0,42,0.00,,,0.00,795,WeatherHawk,2013-08-29 16:45:00,
2013-08-29 11:50:00,80.7,54.1,29.16,SE,131,7.0,-999.0,40,0.00,,,0.00,823,WeatherHawk,2013-08-29 16:50:00,
2013-08-29 11:55:00,82.3,56.9,29.16,SSE,167,7.0,-999.0,42,0.00,,,0.00,495,WeatherHawk,2013-08-29 16:55:00,
2013-08-29 12:00:00,80.7,55.4,29.16,SSE,156,8.0,-999.0,42,0.00,,,0.00,867,WeatherHawk,2013-08-29 17:00:00,
2013-08-29 12:05:00,81.0,57.0,29.16,SSE,152,10.0,-999.0,44,0.00,,,0.00,660,WeatherHawk,2013-08-29 17:05:00,
2013-08-29 12:10:00,80.3,57.0,29.16,SE,143,10.0,-999.0,45,0.00,,,0.00,723,WeatherHawk,2013-08-29 17:10:00,
2013-08-29 12:15:00,80.8,58.0,29.15,South,169,8.0,-999.0,46,0.00,,,0.00,554,WeatherHawk,2013-08-29 17:15:00,
2013-08-29 12:20:00,81.6,59.4,29.15,South,172,4.0,-999.0,47,0.00,,,0.00,430,WeatherHawk,2013-08-29 17:20:00,
2013-08-29 12:25:00,81.5,59.9,29.15,South,170,7.0,-999.0,48,0.00,,,0.00,665,WeatherHawk,2013-08-29 17:25:00,
2013-08-29 12:30:00,83.3,60.9,29.15,NE,46,9.0,-999.0,47,0.00,,,0.00,807,WeatherHawk,2013-08-29 17:30:00,
2013-08-29 12:35:00,84.5,62.6,29.15,ESE,123,8.0,-999.0,48,0.00,,,0.00,817,WeatherHawk,2013-08-29 17:35:00,
2013-08-29 12:40:00,83.1,60.1,29.15,East,99,8.0,-999.0,46,0.00,,,0.00,818,WeatherHawk,2013-08-29 17:40:00,
2013-08-29 12:45:00,83.3,60.3,29.14,ESE,118,5.0,-999.0,46,0.00,,,0.00,818,WeatherHawk,2013-08-29 17:45:00,
2013-08-29 12:50:00,82.6,58.4,29.15,SE,140,8.0,-999.0,44,0.00,,,0.00,818,WeatherHawk,2013-08-29 17:50:00,
2013-08-29 12:55:00,84.8,62.3,29.14,East,101,7.0,-999.0,47,0.00,,,0.00,823,WeatherHawk,2013-08-29 17:55:00,
2013-08-29 13:00:00,84.9,61.1,29.14,ESE,114,10.0,-999.0,45,0.00,,,0.00,818,WeatherHawk,2013-08-29 18:00:00,
2013-08-29 13:05:00,84.7,60.3,29.14,South,172,7.0,-999.0,44,0.00,,,0.00,828,WeatherHawk,2013-08-29 18:05:00,
2013-08-29 13:10:00,82.4,57.6,29.14,South,180,8.0,-999.0,43,0.00,,,0.00,828,WeatherHawk,2013-08-29 18:10:00,
2013-08-29 13:15:00,84.3,60.0,29.13,East,90,7.0,-999.0,44,0.00,,,0.00,841,WeatherHawk,2013-08-29 18:15:00,
2013-08-29 13:20:00,82.7,57.9,29.15,SE,125,11.0,-999.0,43,0.00,,,0.00,825,WeatherHawk,2013-08-29 18:20:00,
2013-08-29 13:25:00,82.3,57.5,29.15,SSE,156,7.0,-999.0,43,0.00,,,0.00,829,WeatherHawk,2013-08-29 18:25:00,
2013-08-29 13:30:00,82.8,56.7,29.14,South,191,6.0,-999.0,41,0.00,,,0.00,835,WeatherHawk,2013-08-29 18:30:00,
2013-08-29 13:35:00,86.8,62.3,29.14,East,81,8.0,-999.0,44,0.00,,,0.00,852,WeatherHawk,2013-08-29 18:35:00,
2013-08-29 13:45:00,85.5,59.0,29.13,NE,34,2.0,-999.0,41,0.00,,,0.00,851,WeatherHawk,2013-08-29 18:45:00,
2013-08-29 13:50:00,84.9,57.2,29.11,ESE,121,8.0,-999.0,39,0.00,,,0.00,814,WeatherHawk,2013-08-29 18:50:00,
2013-08-29 13:55:00,85.6,59.8,29.13,ENE,72,8.0,-999.0,42,0.00,,,0.00,812,WeatherHawk,2013-08-29 18:55:00,
2013-08-29 14:00:00,84.6,59.0,29.12,South,174,5.0,-999.0,42,0.00,,,0.00,815,WeatherHawk,2013-08-29 19:00:00,
2013-08-29 14:05:00,83.6,58.1,29.11,SE,124,8.0,-999.0,42,0.00,,,0.00,803,WeatherHawk,2013-08-29 19:05:00,
2013-08-29 14:10:00,86.3,61.1,29.11,SE,140,10.0,-999.0,43,0.00,,,0.00,799,WeatherHawk,2013-08-29 19:10:00,
2013-08-29 14:15:00,84.5,59.5,29.12,South,170,8.0,-999.0,43,0.00,,,0.00,794,WeatherHawk,2013-08-29 19:15:00,
2013-08-29 14:20:00,88.2,62.9,29.11,ESE,121,8.0,-999.0,43,0.00,,,0.00,795,WeatherHawk,2013-08-29 19:20:00,
2013-08-29 14:25:00,86.6,61.4,29.11,SSE,149,9.0,-999.0,43,0.00,,,0.00,816,WeatherHawk,2013-08-29 19:25:00,
2013-08-29 14:30:00,85.5,59.8,29.10,ESE,102,3.0,-999.0,42,0.00,,,0.00,771,WeatherHawk,2013-08-29 19:30:00,
2013-08-29 14:35:00,85.3,58.2,29.10,ESE,112,10.0,-999.0,40,0.00,,,0.00,763,WeatherHawk,2013-08-29 19:35:00,
2013-08-29 14:40:00,84.3,58.0,29.10,South,187,4.0,-999.0,41,0.00,,,0.00,755,WeatherHawk,2013-08-29 19:40:00,
2013-08-29 14:45:00,84.8,57.1,29.11,South,176,12.0,-999.0,39,0.00,,,0.00,730,WeatherHawk,2013-08-29 19:45:00,
2013-08-29 14:50:00,87.4,60.8,29.12,SSE,152,9.0,-999.0,41,0.00,,,0.00,736,WeatherHawk,2013-08-29 19:50:00,
2013-08-29 14:55:00,88.9,61.4,29.10,East,101,8.0,-999.0,40,0.00,,,0.00,732,WeatherHawk,2013-08-29 19:55:00,
2013-08-29 15:00:00,85.2,58.1,29.11,SE,128,7.0,-999.0,40,0.00,,,0.00,244,WeatherHawk,2013-08-29 20:00:00,
2013-08-29 15:05:00,88.6,61.9,29.11,ESE,116,6.0,-999.0,41,0.00,,,0.00,729,WeatherHawk,2013-08-29 20:05:00,
2013-08-29 15:10:00,84.5,57.5,29.10,South,176,6.0,-999.0,40,0.00,,,0.00,166,WeatherHawk,2013-08-29 20:10:00,
2013-08-29 15:15:00,85.2,58.1,29.11,SSE,154,6.0,-999.0,40,0.00,,,0.00,722,WeatherHawk,2013-08-29 20:15:00,
2013-08-29 15:20:00,86.0,58.8,29.11,South,171,6.0,-999.0,40,0.00,,,0.00,703,WeatherHawk,2013-08-29 20:20:00,
2013-08-29 15:25:00,86.2,58.3,29.11,SE,133,4.0,-999.0,39,0.00,,,0.00,764,WeatherHawk,2013-08-29 20:25:00,
2013-08-29 15:30:00,86.1,57.5,29.11,SE,127,5.0,-999.0,38,0.00,,,0.00,753,WeatherHawk,2013-08-29 20:30:00,
2013-08-29 15:35:00,85.2,56.7,29.09,ENE,70,9.0,-999.0,38,0.00,,,0.00,705,WeatherHawk,2013-08-29 20:35:00,
2013-08-29 15:40:00,87.0,59.0,29.10,East,90,10.0,-999.0,39,0.00,,,0.00,705,WeatherHawk,2013-08-29 20:40:00,
2013-08-29 15:45:00,87.4,58.6,29.10,ESE,109,10.0,-999.0,38,0.00,,,0.00,660,WeatherHawk,2013-08-29 20:45:00,
2013-08-29 15:50:00,88.4,61.0,29.09,East,98,7.0,-999.0,40,0.00,,,0.00,617,WeatherHawk,2013-08-29 20:50:00,
2013-08-29 15:55:00,88.8,60.6,29.09,SSE,147,8.0,-999.0,39,0.00,,,0.00,590,WeatherHawk,2013-08-29 20:55:00,
2013-08-29 16:00:00,87.7,58.9,29.08,SE,135,7.0,-999.0,38,0.00,,,0.00,566,WeatherHawk,2013-08-29 21:00:00,
2013-08-29 16:05:00,87.9,57.5,29.09,SSW,212,5.0,-999.0,36,0.00,,,0.00,557,WeatherHawk,2013-08-29 21:05:00,
2013-08-29 16:10:00,86.8,57.4,29.10,SSE,163,5.0,-999.0,37,0.00,,,0.00,553,WeatherHawk,2013-08-29 21:10:00,
2013-08-29 16:15:00,86.0,57.4,29.09,SE,134,6.0,-999.0,38,0.00,,,0.00,536,WeatherHawk,2013-08-29 21:15:00,
2013-08-29 16:20:00,85.8,58.0,29.09,SE,137,10.0,-999.0,39,0.00,,,0.00,526,WeatherHawk,2013-08-29 21:20:00,
2013-08-29 16:25:00,86.3,58.4,29.09,SE,128,9.0,-999.0,39,0.00,,,0.00,509,WeatherHawk,2013-08-29 21:25:00,
2013-08-29 16:30:00,85.8,57.9,29.09,SSW,202,5.0,-999.0,39,0.00,,,0.00,507,WeatherHawk,2013-08-29 21:30:00,
2013-08-29 16:35:00,87.2,60.6,29.08,SSE,152,10.0,-999.0,41,0.00,,,0.00,477,WeatherHawk,2013-08-29 21:35:00,
2013-08-29 16:40:00,85.8,59.3,29.08,SE,125,8.0,-999.0,41,0.00,,,0.00,430,WeatherHawk,2013-08-29 21:40:00,
2013-08-29 16:45:00,85.7,59.2,29.08,SSW,210,7.0,-999.0,41,0.00,,,0.00,451,WeatherHawk,2013-08-29 21:45:00,
2013-08-29 16:50:00,85.9,58.8,29.08,SE,130,6.0,-999.0,40,0.00,,,0.00,442,WeatherHawk,2013-08-29 21:50:00,
2013-08-29 16:55:00,85.5,58.4,29.08,SSE,151,8.0,-999.0,40,0.00,,,0.00,416,WeatherHawk,2013-08-29 21:55:00,
2013-08-29 17:00:00,85.1,57.4,29.08,SE,131,11.0,-999.0,39,0.00,,,0.00,392,WeatherHawk,2013-08-29 22:00:00,
2013-08-29 17:05:00,85.6,59.1,29.08,SSE,156,6.0,-999.0,41,0.00,,,0.00,183,WeatherHawk,2013-08-29 22:05:00,
2013-08-29 17:10:00,85.6,59.9,29.07,SE,125,10.0,-999.0,42,0.00,,,0.00,393,WeatherHawk,2013-08-29 22:10:00,
2013-08-29 17:15:00,86.5,60.0,29.07,SSE,148,11.0,-999.0,41,0.00,,,0.00,382,WeatherHawk,2013-08-29 22:15:00,
2013-08-29 17:20:00,85.5,59.1,29.07,SSE,158,7.0,-999.0,41,0.00,,,0.00,361,WeatherHawk,2013-08-29 22:20:00,
2013-08-29 17:25:00,86.3,59.8,29.06,ESE,109,9.0,-999.0,41,0.00,,,0.00,339,WeatherHawk,2013-08-29 22:25:00,
2013-08-29 17:30:00,87.6,60.9,29.06,SE,140,7.0,-999.0,41,0.00,,,0.00,319,WeatherHawk,2013-08-29 22:30:00,
2013-08-29 17:35:00,85.7,59.3,29.06,East,99,10.0,-999.0,41,0.00,,,0.00,310,WeatherHawk,2013-08-29 22:35:00,
2013-08-29 17:40:00,85.7,59.9,29.07,East,96,8.0,-999.0,42,0.00,,,0.00,295,WeatherHawk,2013-08-29 22:40:00,
2013-08-29 17:45:00,85.4,59.0,29.06,SE,145,10.0,-999.0,41,0.00,,,0.00,279,WeatherHawk,2013-08-29 22:45:00,
2013-08-29 17:50:00,85.5,60.4,29.06,East,101,8.0,-999.0,43,0.00,,,0.00,262,WeatherHawk,2013-08-29 22:50:00,
2013-08-29 17:55:00,85.3,59.6,29.05,ESE,121,8.0,-999.0,42,0.00,,,0.00,249,WeatherHawk,2013-08-29 22:55:00,
2013-08-29 18:00:00,86.5,61.3,29.06,SSE,158,8.0,-999.0,43,0.00,,,0.00,231,WeatherHawk,2013-08-29 23:00:00,
2013-08-29 18:05:00,85.2,60.1,29.06,SE,138,7.0,-999.0,43,0.00,,,0.00,216,WeatherHawk,2013-08-29 23:05:00,
2013-08-29 18:10:00,85.4,59.6,29.06,SE,133,6.0,-999.0,42,0.00,,,0.00,203,WeatherHawk,2013-08-29 23:10:00,
2013-08-29 18:15:00,85.9,60.8,29.06,East,95,8.0,-999.0,43,0.00,,,0.00,185,WeatherHawk,2013-08-29 23:15:00,
2013-08-29 18:20:00,85.8,60.6,29.05,SE,126,6.0,-999.0,43,0.00,,,0.00,171,WeatherHawk,2013-08-29 23:20:00,
2013-08-29 18:25:00,84.6,60.2,29.06,SSE,148,7.0,-999.0,44,0.00,,,0.00,156,WeatherHawk,2013-08-29 23:25:00,
2013-08-29 18:30:00,84.6,60.2,29.06,SSE,150,5.0,-999.0,44,0.00,,,0.00,144,WeatherHawk,2013-08-29 23:30:00,
2013-08-29 18:35:00,85.0,60.6,29.06,East,100,6.0,-999.0,44,0.00,,,0.00,135,WeatherHawk,2013-08-29 23:35:00,
2013-08-29 18:40:00,84.2,60.5,29.06,East,95,5.0,-999.0,45,0.00,,,0.00,118,WeatherHawk,2013-08-29 23:40:00,
2013-08-29 18:45:00,84.1,59.8,29.06,South,177,7.0,-999.0,44,0.00,,,0.00,106,WeatherHawk,2013-08-29 23:45:00,
2013-08-29 18:50:00,83.7,60.1,29.05,ESE,118,5.0,-999.0,45,0.00,,,0.00,92,WeatherHawk,2013-08-29 23:50:00,
2013-08-29 18:55:00,83.6,59.4,29.05,SE,124,7.0,-999.0,44,0.00,,,0.00,79,WeatherHawk,2013-08-29 23:55:00,
2013-08-29 19:00:00,83.4,60.4,29.05,ESE,122,5.0,-999.0,46,0.00,,,0.00,68,WeatherHawk,2013-08-30 00:00:00,
2013-08-29 19:05:00,83.5,61.1,29.05,East,96,5.0,-999.0,47,0.00,,,0.00,57,WeatherHawk,2013-08-30 00:05:00,
2013-08-29 19:10:00,82.3,61.2,29.05,East,91,4.0,-999.0,49,0.00,,,0.00,45,WeatherHawk,2013-08-30 00:10:00,
2013-08-29 19:15:00,82.4,62.4,29.05,ESE,110,6.0,-999.0,51,0.00,,,0.00,37,WeatherHawk,2013-08-30 00:15:00,
2013-08-29 19:20:00,81.6,62.2,29.06,ESE,123,3.0,-999.0,52,0.00,,,0.00,28,WeatherHawk,2013-08-30 00:20:00,
2013-08-29 19:25:00,81.0,62.2,29.05,East,93,3.0,-999.0,53,0.00,,,0.00,21,WeatherHawk,2013-08-30 00:25:00,
2013-08-29 19:30:00,80.9,63.2,29.05,East,99,4.0,-999.0,55,0.00,,,0.00,11,WeatherHawk,2013-08-30 00:30:00,
2013-08-29 19:35:00,81.5,63.8,29.05,SE,139,4.0,-999.0,55,0.00,,,0.00,8,WeatherHawk,2013-08-30 00:35:00,
2013-08-29 19:40:00,81.4,62.6,29.05,ESE,115,5.0,-999.0,53,0.00,,,0.00,4,WeatherHawk,2013-08-30 00:40:00,
2013-08-29 19:45:00,80.8,62.1,29.04,East,94,6.0,-999.0,53,0.00,,,0.00,3,WeatherHawk,2013-08-30 00:45:00,
2013-08-29 19:50:00,81.0,62.3,29.05,SE,136,5.0,-999.0,53,0.00,,,0.00,2,WeatherHawk,2013-08-30 00:50:00,
2013-08-29 19:55:00,81.4,62.1,29.04,SE,125,8.0,-999.0,52,0.00,,,0.00,1,WeatherHawk,2013-08-30 00:55:00,
2013-08-29 20:00:00,79.6,61.9,29.04,ESE,116,7.0,-999.0,55,0.00,,,0.00,1,WeatherHawk,2013-08-30 01:00:00,
2013-08-29 20:05:00,80.3,62.7,29.05,SE,141,7.0,-999.0,55,0.00,,,0.00,0,WeatherHawk,2013-08-30 01:05:00,
2013-08-29 20:10:00,79.4,61.8,29.04,ESE,115,5.0,-999.0,55,0.00,,,0.00,0,WeatherHawk,2013-08-30 01:10:00,
2013-08-29 20:15:00,80.1,61.9,29.05,East,87,6.0,-999.0,54,0.00,,,0.00,0,WeatherHawk,2013-08-30 01:15:00,
2013-08-29 20:20:00,79.1,62.1,29.05,ESE,105,5.0,-999.0,56,0.00,,,0.00,0,WeatherHawk,2013-08-30 01:20:00,
2013-08-29 20:25:00,78.5,62.4,29.05,East,92,4.0,-999.0,58,0.00,,,0.00,0,WeatherHawk,2013-08-30 01:25:00,
2013-08-29 20:30:00,78.2,63.2,29.05,East,87,5.0,-999.0,60,0.00,,,0.00,0,WeatherHawk,2013-08-30 01:30:00,
2013-08-29 20:35:00,77.9,63.4,29.06,East,93,5.0,-999.0,61,0.00,,,0.00,0,WeatherHawk,2013-08-30 01:35:00,
2013-08-29 20:40:00,77.7,64.1,29.06,East,90,5.0,-999.0,63,0.00,,,0.00,0,WeatherHawk,2013-08-30 01:40:00,
2013-08-29 20:45:00,77.8,64.1,29.06,East,86,5.0,-999.0,63,0.00,,,0.00,0,WeatherHawk,2013-08-30 01:45:00,
2013-08-29 20:50:00,77.9,64.3,29.05,ENE,75,6.0,-999.0,63,0.00,,,0.00,0,WeatherHawk,2013-08-30 01:50:00,
2013-08-29 20:55:00,77.9,64.7,29.05,East,85,6.0,-999.0,64,0.00,,,0.00,0,WeatherHawk,2013-08-30 01:55:00,
2013-08-29 21:00:00,77.7,64.1,29.05,ESE,122,6.0,-999.0,63,0.00,,,0.00,0,WeatherHawk,2013-08-30 02:00:00,
2013-08-29 21:05:00,77.2,64.1,29.06,East,86,4.0,-999.0,64,0.00,,,0.00,1,WeatherHawk,2013-08-30 02:05:00,
2013-08-29 21:10:00,77.5,64.4,29.06,East,87,5.0,-999.0,64,0.00,,,0.00,0,WeatherHawk,2013-08-30 02:10:00,
2013-08-29 21:20:00,77.6,64.5,29.06,East,81,4.0,-999.0,64,0.00,,,0.00,0,WeatherHawk,2013-08-30 02:20:00,
2013-08-29 21:25:00,77.1,64.9,29.05,East,93,4.0,-999.0,66,0.00,,,0.00,0,WeatherHawk,2013-08-30 02:25:00,
2013-08-29 21:30:00,75.9,65.0,29.05,East,93,5.0,-999.0,69,0.00,,,0.00,0,WeatherHawk,2013-08-30 02:30:00,
2013-08-29 21:35:00,76.6,65.6,29.05,East,97,7.0,-999.0,69,0.00,,,0.00,0,WeatherHawk,2013-08-30 02:35:00,
2013-08-29 21:40:00,77.7,65.4,29.05,ESE,106,7.0,-999.0,66,0.00,,,0.00,0,WeatherHawk,2013-08-30 02:40:00,
2013-08-29 21:45:00,77.6,64.8,29.05,East,91,6.0,-999.0,65,0.00,,,0.00,0,WeatherHawk,2013-08-30 02:45:00,
2013-08-29 21:50:00,76.9,64.2,29.05,East,90,8.0,-999.0,65,0.00,,,0.00,0,WeatherHawk,2013-08-30 02:50:00,
2013-08-29 21:55:00,77.2,64.9,29.05,ESE,114,7.0,-999.0,66,0.00,,,0.00,0,WeatherHawk,2013-08-30 02:55:00,
2013-08-29 22:00:00,76.7,64.5,29.05,East,85,6.0,-999.0,66,0.00,,,0.00,0,WeatherHawk,2013-08-30 03:00:00,
2013-08-29 22:05:00,76.7,64.0,29.04,East,87,7.0,-999.0,65,0.00,,,0.00,0,WeatherHawk,2013-08-30 03:05:00,
2013-08-29 22:10:00,77.1,64.4,29.05,ESE,118,6.0,-999.0,65,0.00,,,0.00,0,WeatherHawk,2013-08-30 03:10:00,
2013-08-29 22:15:00,77.3,64.6,29.05,East,85,7.0,-999.0,65,0.00,,,0.00,1,WeatherHawk,2013-08-30 03:15:00,
2013-08-29 22:20:00,77.1,64.0,29.05,SE,128,6.0,-999.0,64,0.00,,,0.00,0,WeatherHawk,2013-08-30 03:20:00,
2013-08-29 22:25:00,77.8,64.7,29.05,SE,140,6.0,-999.0,64,0.00,,,0.00,0,WeatherHawk,2013-08-30 03:25:00,
2013-08-29 22:30:00,77.1,64.4,29.04,ESE,108,3.0,-999.0,65,0.00,,,0.00,0,WeatherHawk,2013-08-30 03:30:00,
2013-08-29 22:35:00,76.8,64.2,29.05,ESE,102,3.0,-999.0,65,0.00,,,0.00,0,WeatherHawk,2013-08-30 03:35:00,
2013-08-29 22:40:00,76.9,64.6,29.05,ESE,118,5.0,-999.0,66,0.00,,,0.00,0,WeatherHawk,2013-08-30 03:40:00,
2013-08-29 22:45:00,76.2,64.4,29.04,East,96,3.0,-999.0,67,0.00,,,0.00,0,WeatherHawk,2013-08-30 03:45:00,
2013-08-29 22:50:00,77.0,65.2,29.04,SE,141,2.0,-999.0,67,0.00,,,0.00,0,WeatherHawk,2013-08-30 03:50:00,
2013-08-29 22:55:00,76.9,64.7,29.05,ESE,106,4.0,-999.0,66,0.00,,,0.00,0,WeatherHawk,2013-08-30 03:55:00,
2013-08-29 23:00:00,76.9,65.1,29.05,ENE,78,4.0,-999.0,67,0.00,,,0.00,0,WeatherHawk,2013-08-30 04:00:00,
2013-08-29 23:05:00,76.8,64.6,29.05,SE,145,4.0,-999.0,66,0.00,,,0.00,1,WeatherHawk,2013-08-30 04:05:00,
2013-08-29 23:10:00,77.3,64.6,29.05,East,98,6.0,-999.0,65,0.00,,,0.00,0,WeatherHawk,2013-08-30 04:10:00,
2013-08-29 23:15:00,77.1,64.0,29.04,East,84,5.0,-999.0,64,0.00,,,0.00,0,WeatherHawk,2013-08-30 04:15:00,
2013-08-29 23:20:00,77.1,63.9,29.05,SE,142,5.0,-999.0,64,0.00,,,0.00,0,WeatherHawk,2013-08-30 04:20:00,
2013-08-29 23:25:00,76.9,64.3,29.05,SE,142,5.0,-999.0,65,0.00,,,0.00,0,WeatherHawk,2013-08-30 04:25:00,
2013-08-29 23:30:00,76.5,64.7,29.04,ESE,118,3.0,-999.0,67,0.00,,,0.00,0,WeatherHawk,2013-08-30 04:30:00,
2013-08-29 23:35:00,76.6,64.8,29.04,East,98,6.0,-999.0,67,0.00,,,0.00,0,WeatherHawk,2013-08-30 04:35:00,
2013-08-29 23:40:00,76.1,64.8,29.04,ENE,74,0.0,-999.0,68,0.00,,,0.00,0,WeatherHawk,2013-08-30 04:40:00,
2013-08-29 23:45:00,75.9,64.6,29.05,East,90,0.0,-999.0,68,0.00,,,0.00,1,WeatherHawk,2013-08-30 04:45:00,
2013-08-29 23:50:00,75.6,64.7,29.04,East,80,2.0,-999.0,69,0.00,,,0.00,0,WeatherHawk,2013-08-30 04:50:00,